Location: ??????
(55.6500°N, 37.8000°E)
Time: 11:16:39
(UTC+00:00)

Cosmos 2297 - Pass Details

Date: 14 April 2024
Orbit: 834 x 859 km, 71.0° (Epoch: 18 May)

Event Time Altitude Azimuth Distance (km) Brightness Sun altitude
Rises 01:19:47 0° 325° (NW) 3,438 6.9 -9.3°
Reaches altitude 10° 01:22:15 10° 326° (NW) 2,502 6.2 -9.0°
Maximum altitude 01:28:02 84° 56° (NE) 871 3.9 -8.3°
Drops below altitude 10° 01:33:47 10° 145° (SE) 2,494 6.2 -7.6°
Sets 01:36:14 0° 146° (SE) 3,427 6.9 -7.3°
